{"data":{"norad_id":53782,"epoch":"2026-05-25T04:00:03.998880Z","epoch_age_seconds":54419,"freshness":"FRESH","line1":"1 53782U 22111K   26145.16671295  .00651605  00000+0  35326-2 0  9990","line2":"2 53782  53.2165 273.3376 0000892  36.3977 146.5511 15.77703748  5966","mean_motion":15.77703748,"eccentricity":8.92e-5,"inclination_deg":53.2165,"raan_deg":273.3376,"arg_perigee_deg":36.3977,"mean_anomaly_deg":146.5511,"bstar":0.0035326,"rev_number":596,"period_min":91.271888136505,"perigee_km":336.3493564647,"apogee_km":337.54732768972,"semimajor_km":6715.0853420772,"source":"CELESTRAK","updated_at":"2026-05-25T13:38:17.542722Z"}}